Regional Weather Roundup
Issued by NWS Goodland, KS

Home | Current Version | Previous Version | Graphics & Text | Print | Product List | Glossary On
Versions: 1 2 3 4 5 6 7 8 9 10 11 12 13 14 15 16 17 18 19 20 21 22 23 24 25 26 27 28 29 30 31 32 33 34 35 36 37 38 39 40 41 42 43 44 45 46 47 48 49 50
960
ASUS43 KGLD 031759
RWRGLD

GOODLAND FORECAST AREA HOURLY WEATHER ROUNDUP
NATIONAL WEATHER SERVICE GOODLAND KS
1200 PM MDT TUE MAY 03 2016

...OFFICIAL OBSERVATIONS...

CITY           SKY/WX    TMP DP  RH WIND       PRES   REMARKS
GOODLAND KS    MOSUNNY   59  39  47 N15       30.13S
HILL CITY KS   MOSUNNY   63  43  48 VRB3      30.09F
IMPERIAL NEB   SUNNY     59  43  55 N16       30.13F
MCCOOK NEB     PTSUNNY   61  45  55 N10       30.11S
AKRON CO       SUNNY     60  33  36 N21       30.17F
BURLINGTON CO  SUNNY     60  35  39 N18G28    30.15S
LIMON CO       MOSUNNY   58  38  47 N30G36    30.21R
$$

...UNOFFICIAL OBSERVATIONS...

CITY           SKY/WX    TMP DP  RH WIND       PRES   REMARKS
COLBY KS       CLOUDY    57  48  72 NW9       30.14S
LENORA KS        N/A     59  32  36 MISG        N/A
NORTON KS      PTSUNNY   59  39  47 NW9       30.09S
SHARON SPRINGS   N/A     57  41  55 NE10G20     N/A
TRIBUNE KS     CLOUDY    61  39  44 N14       30.15R
KIT CARSON CO    N/A     59  38  44 MISG        N/A
YUMA CO          N/A     59  38  45 N9G20       N/A
$$




USA.gov is the U.S. government's official web portal to all federal, state and local government web resources and services.